STARLINK-35467, 66343

Orbit data source: Space-Track

STARLINK-35467, 66343 is a payload satellite owned by SpaceX/Seattle (US) in LEO that was launched on Thu, 06 Nov 2025 UTC via an FALCON 9 launch vehicle from the Air Force Eastern Test Range (AFETR). Payload-class satellites include a variety of spacecraft equipped with specific instruments for various scientific and technological missions. These include communications satellites like Starlink; space stations such as the ISS; scientific satellites like the Hubble; Earth observation satellites from companies like Planet Labs, Umbra, and HawkEye 360; GPS; miniature CubeSats for education and research; and military/defense satellites.

Loading next visibility...
Identifier
66343, 2025-253AA
Orbit
LEO
Country
Flag of USUS
Related business
Manufacturer
SpaceX/Seattle
Mission
Operational Commercial Communications
Bus & Motor
STARLINK V2MO, Unknown motor
Mass
575 kg wet, ~530 kg dry
Launch date (UTC)
2025-11-06 (7 months ago)
Launch vehicle
FALCON 9
Launch site
Air Force Eastern Test Range (AFETR)
Object type
Payload
Rocket body
Debris
Shape & HBR
Box + 2 Pan, 17.7 m
Radar Cross Section
36.964 m², Large (>1 m²)

Expand to show TLE details & history
Last TLE update: 15 hours ago

TLE from 15 hours ago
0 STARLINK-35467
1 66343U 25253AA  26170.57444515  .00014733  00000-0  54360-3 0  9999
2 66343  43.0015 357.3563 0001125 253.9025 106.1702 15.27595693 35821
Epoch: 2026-06-19T13:47Z
TLE epoch observation values (Epoch: 2026-06-19T13:47:12.060Z)
Latitude
-0.0001°
Longitude
-117.24552°
Altitude
482.993 km
Speed
7.626 km/s
True Right ascension
23h 49m 25s
True Declination
0° 00' 00"
Sunlit
Object was in daylight at epoch
Visualization orbit readout
Latitude
Unknown
Longitude
Unknown
Altitude
Unknown
Speed
Unknown
Apparent Right ascension
Unknown
Apparent Declination
Unknown
Sunlit
N/A
Visualization observer readout
Local Sidereal Time
16:05:33
Azimuth
Unknown
Elevation
Unknown
Doppler factor
Unknown
Orbital elements
Apogee altitude
485.719 km
Perigee altitude
484.175 km
Semi-major axis
6,863.084 km
Eccentricity
0.00011
Inclination
43.0015°
RAAN
357.3563°
Arg. of periapsis
253.9025°
True anomaly
106.18258°
Mean anomaly
106.1702°
Eccentric anomaly
106.17639°
Mean motion
3.81737 °/min
Orbital period
94.31 mins
BSTAR
0.0005436
Loading maneuver chart data...
Computing Atmospheric mass density...
Loading historical data...
Loading historical data...
Loading historical data...
Loading historical data...
Loading historical data...
Loading historical data...
Loading historical data...

Documentation

Showing up to 5 results
|